Location: Clamart
(48.8004°N, 2.2630°E)
Time: 15:05:25
(UTC+02:00)

ISS - Visible Passes

Search period start: 18 May 2026 00:00
Search period end: 28 May 2026 00:00
Orbit: 414 x 424 km, 51.6° (Epoch: 18 May)

Date Brightness Start Highest point End Pass type
(mag) Time Alt. Az. Time Alt. Az. Time Alt. Az.
18 May -1.7 01:00:40 10° W 01:01:57 19° W 01:01:57 19° W visible
18 May -3.2 22:36:00 10° WNW 22:39:19 58° N 22:42:37 10° E visible
19 May -3.3 00:12:51 10° WNW 00:15:53 45° SW 00:15:53 45° SW visible
19 May -3.8 23:25:07 10° WNW 23:28:27 67° SSW 23:29:48 32° SE visible
20 May -3.8 22:37:24 10° WNW 22:40:45 89° NNE 22:43:45 12° ESE visible
21 May -2.0 00:14:36 10° W 00:16:41 21° SW 00:16:41 21° SW visible
21 May -2.7 23:26:38 10° W 23:29:39 32° SW 23:30:39 26° S visible
22 May -3.3 22:38:47 10° WNW 22:42:01 47° SSW 22:44:38 14° SE visible
23 May -1.6 23:28:42 10° WSW 23:30:37 15° SW 23:31:35 13° SSW visible
24 May -2.0 22:40:25 10° W 22:43:04 22° SW 22:45:37 10° SSE visible
